Location: Unspecified
(0.0000°N, 0.0000°E)
Time: 01:42:32
(UTC+00:00)

Tiros 1 - Visible Passes

Search period start: 26 May 2019 00:00
Search period end: 05 June 2019 00:00
Orbit: 630 x 664 km, 48.4° (Epoch: 25 May)

Date Brightness Start Highest point End Pass type
(mag) Time Alt. Az. Time Alt. Az. Time Alt. Az.
26 May 7.7 18:27:57 10° NW 18:32:40 60° SW 18:37:26 10° SSE visible
27 May 9.4 05:00:27 10° S 05:03:45 19° SE 05:07:01 10° E visible
27 May 9.5 18:55:22 10° W 18:58:44 19° SW 19:02:06 10° S visible
28 May 7.5 05:25:12 10° SSW 05:29:47 64° SE 05:34:21 10° NE visible
29 May 9.4 04:11:43 13° SSE 04:13:45 17° SE 04:16:45 10° E visible
30 May 7.6 04:37:19 25° SSW 04:39:49 56° SE 04:44:20 10° NE visible
31 May 9.8 03:25:10 13° ESE 03:25:10 13° ESE 03:26:26 10° E visible
31 May 7.7 05:02:53 19° WSW 05:05:49 40° NW 05:10:09 10° NNE visible
01 Jun 8.1 03:50:42 43° E 03:50:42 43° E 03:54:18 10° NE visible
01 Jun 9.2 05:29:56 10° WNW 05:31:53 12° NW 05:33:51 10° NNW visible
02 Jun 7.6 04:16:10 45° NW 04:16:10 45° NW 04:20:16 10° NNE visible
03 Jun 10.2 03:03:52 12° ENE 03:03:52 12° ENE 03:04:16 10° ENE visible
03 Jun 9.1 04:41:34 14° NW 04:41:54 14° NW 04:44:21 10° NNW visible
04 Jun 9.5 03:29:12 17° NNE 03:29:12 17° NNE 03:30:23 10° NNE visible
